Simultaneous Nadir Overpasses (SNOs) Predictions

Prediction of SNOs between AQUA and GOES-15 Satellite Orbit:

Table of predicted SNOs for the next 14.0 days since TLE Epoch: 7/26/2019
Index Date Time (AQUA) AQUA Lat,Lon GOES-15 Lat,Lon Distance(km) Time Diff (sec)
1 07/28/2019 10:00:59 -0.60,-126.45 -0.24,-128.19 196.76 80
2 07/28/2019 22:22:23 -0.49,-131.65 0.26,-128.17 395.22 80
3 07/30/2019 22:10:12 0.17,-128.70 0.26,-128.21 55.01 80
4 08/01/2019 21:58:00 0.78,-125.74 0.26,-128.24 284.75 80
5 08/02/2019 10:19:17 0.26,-130.91 -0.28,-128.28 298.60 80
6 08/04/2019 10:07:05 -0.34,-127.95 -0.28,-128.31 40.91 80
7 08/06/2019 09:54:54 -1.01,-125.00 -0.28,-128.34 380.13 80
8 08/06/2019 22:16:17 -0.12,-130.18 0.29,-128.32 212.55 80
9 08/08/2019 22:04:06 0.55,-127.23 0.30,-128.34 126.17 80
10 08/09/2019 10:25:21 0.56,-132.39 -0.31,-128.37 457.06 80




NCC Satellite Simultaneous Nadir Overpasses (SNOs) Prediction Service
